EW6810 Weather Reports


Display with metric or nautical units.
time (UTC)temp
F
wind
direction
speed
MPH
gust
MPH
rain 1hr
in
rain 24hr
in
rain mn
in
humidity
%
barometer
mb
20260508232541 56 85 1.0 6.0 0.00 0.00 0.00 68 1017.4
20260508232041 56 115 0.0 6.0 0.00 0.00 0.00 69 1017.5
20260508231540 56 96 0.0 4.0 0.00 0.00 0.00 71 1017.5
20260508231044 56 169 0.0 4.0 0.00 0.00 0.00 73 1017.5
20260508230642 56 169 0.0 4.0 0.00 0.00 0.00 71 1017.5
20260508230042 56 96 0.0 3.0 0.00 0.00 0.00 70 1017.5
20260508225539 56 186 0.0 4.0 0.00 0.00 0.00 70 1017.5
20260508225039 56 186 0.0 6.0 0.00 0.00 0.00 69 1017.4
20260508224538 56 128 1.0 6.0 0.00 0.00 0.00 69 1017.3
20260508224038 56 146 2.0 5.0 0.00 0.00 0.00 69 1017.3
20260508223538 55 348 1.0 7.0 0.00 0.00 0.00 71 1017.3
20260508223040 55 155 3.0 7.0 0.00 0.00 0.00 70 1017.3
20260508222538 55 322 0.0 6.0 0.00 0.00 0.00 72 1017.4
20260508222037 55 308 3.0 6.0 0.00 0.00 0.00 72 1017.4
20260508221537 54 151 1.0 4.0 0.00 0.00 0.00 73 1017.4
20260508221037 54 156 1.0 4.0 0.00 0.00 0.00 73 1017.4
20260508220636 54 67 0.0 3.0 0.00 0.00 0.00 73 1017.3
20260508220049 54 150 0.0 4.0 0.00 0.00 0.00 73 1017.4
20260508215549 54 150 1.0 4.0 0.00 0.00 0.00 73 1017.4
20260508215049 54 182 1.0 3.0 0.00 0.00 0.00 74 1017.3
20260508214549 54 138 0.0 4.0 0.00 0.00 0.00 73 1017.2
20260508214052 54 63 1.0 5.0 0.00 0.00 0.00 73 1017.2
20260508213549 54 116 1.0 4.0 0.00 0.00 0.00 73 1017.4
20260508213048 54 17 1.0 7.0 0.00 0.00 0.00 73 1017.3
20260508212548 54 101 1.0 7.0 0.00 0.00 0.00 74 1017.3
20260508212048 54 280 0.0 4.0 0.00 0.00 0.00 73 1017.3
20260508211547 54 137 1.0 4.0 0.00 0.00 0.00 73 1017.3
20260508211050 54 37 2.0 4.0 0.00 0.00 0.00 73 1017.2
20260508210519 54 188 1.0 4.0 0.00 0.00 0.00 73 1017.0
20260508210018 54 138 1.0 3.0 0.00 0.00 0.00 73 1017.0
20260508205518 54 17 0.0 3.0 0.00 0.00 0.00 74 1017.0
20260508205017 54 16 1.0 5.0 0.00 0.00 0.00 73 1016.9
20260508204517 54 153 1.0 5.0 0.00 0.00 0.00 73 1016.9
20260508204016 54 327 0.0 5.0 0.00 0.00 0.00 72 1016.9
20260508203515 54 157 1.0 5.0 0.00 0.00 0.00 72 1016.8
20260508203017 55 111 0.0 4.0 0.00 0.00 0.00 72 1016.7
20260508202515 54 247 0.0 4.0 0.00 0.00 0.00 72 1016.7
20260508202014 55 25 1.0 4.0 0.00 0.00 0.00 72 1016.6
20260508201519 55 160 1.0 4.0 0.00 0.00 0.00 72 1016.6
20260508201013 54 101 0.0 9.0 0.00 0.00 0.00 74 1016.5
20260508200513 53 141 0.0 9.0 0.00 0.00 0.00 74 1016.6
20260508200019 53 71 3.0 9.0 0.00 0.00 0.00 73 1016.5
20260508195510 53 160 2.0 6.0 0.00 0.00 0.00 75 1016.4
20260508195011 53 21 1.0 11.0 0.00 0.00 0.00 76 1016.5
20260508194511 53 14 0.0 11.0 0.00 0.00 0.00 76 1016.4
20260508194009 53 146 1.0 5.0 0.00 0.00 0.00 76 1016.4
20260508193509 53 4 2.0 5.0 0.00 0.00 0.00 76 1016.3
20260508193015 53 121 0.0 7.0 0.00 0.00 0.00 77 1016.2
20260508192512 53 48 2.0 9.0 0.00 0.00 0.00 77 1016.2
20260508192012 53 177 1.0 9.0 0.00 0.00 0.00 76 1016.1
20260508191510 54 136 2.0 6.0 0.00 0.00 0.00 76 1016.0
20260508191007 54 43 1.0 9.0 0.00 0.00 0.00 77 1016.0
20260508190505 54 149 2.0 9.0 0.00 0.00 0.00 77 1015.8
20260508190007 54 43 1.0 4.0 0.00 0.00 0.00 79 1015.8
20260508185503 54 111 0.0 9.0 0.00 0.00 0.00 79 1015.6
20260508185003 54 205 2.0 9.0 0.00 0.00 0.00 79 1015.6
20260508184506 54 157 1.0 5.0 0.00 0.00 0.00 78 1015.4
20260508184003 54 240 1.0 7.0 0.00 0.00 0.00 78 1015.3
20260508183503 54 117 1.0 9.0 0.00 0.00 0.00 78 1015.5
20260508183002 55 213 2.0 9.0 0.00 0.00 0.00 77 1015.5
20260508182502 55 163 1.0 7.0 0.00 0.00 0.00 77 1015.5
20260508182102 55 123 1.0 7.0 0.00 0.00 0.00 77 1015.4
20260508181635 55 284 2.0 7.0 0.00 0.00 0.00 77 1015.4
20260508181101 55 96 1.0 10.0 0.00 0.00 0.00 78 1015.2
20260508180601 55 197 2.0 10.0 0.00 0.00 0.00 77 1015.1
20260508180105 55 187 2.0 11.0 0.00 0.00 0.00 77 1015.0
20260508175557 55 136 3.0 11.0 0.00 0.00 0.00 75 1015.0
20260508175057 56 146 1.0 7.0 0.00 0.00 0.00 76 1014.9
20260508174603 56 129 2.0 6.0 0.00 0.00 0.00 75 1015.0
20260508174056 56 138 2.0 5.0 0.00 0.00 0.00 76 1014.8
20260508173556 56 26 3.0 6.0 0.00 0.00 0.00 76 1014.9
20260508173056 56 138 1.0 4.0 0.00 0.00 0.00 76 1014.8
20260508172555 56 16 0.0 6.0 0.00 0.00 0.00 77 1014.8
20260508172055 56 129 1.0 6.0 0.00 0.00 0.00 76 1014.7
20260508171555 56 46 1.0 4.0 0.00 0.00 0.00 76 1014.6
20260508171053 56 95 1.0 10.0 0.00 0.00 0.00 76 1014.6
20260508170553 56 190 2.0 10.0 0.00 0.00 0.00 75 1014.6
20260508170053 56 189 3.0 10.0 0.00 0.00 0.00 75 1014.4
20260508165552 56 122 1.0 8.0 0.00 0.00 0.00 76 1014.4
20260508165051 56 167 2.0 8.0 0.00 0.00 0.00 77 1014.3
20260508164551 56 164 2.0 4.0 0.00 0.00 0.00 79 1014.4
20260508164050 56 321 1.0 4.0 0.00 0.00 0.00 78 1014.3
20260508163547 56 116 0.0 6.0 0.00 0.00 0.00 79 1014.4
20260508163048 55 214 1.0 6.0 0.00 0.00 0.00 79 1014.5
20260508162547 55 101 2.0 8.0 0.00 0.00 0.00 79 1014.2
20260508162047 55 195 2.0 8.0 0.00 0.00 0.00 79 1014.2
20260508161556 55 192 2.0 7.0 0.00 0.00 0.00 79 1014.2
20260508161046 56 208 1.0 4.0 0.00 0.00 0.00 78 1014.0
20260508160546 56 118 0.0 3.0 0.00 0.00 0.00 79 1014.0
20260508160045 56 177 1.0 5.0 0.00 0.00 0.00 79 1013.9
20260508155544 55 142 0.0 5.0 0.00 0.00 0.00 79 1013.8
20260508155043 55 76 1.0 3.0 0.00 0.00 0.00 80 1013.9
20260508154542 55 101 0.0 5.0 0.00 0.00 0.00 80 1013.9
20260508154041 55 280 0.0 5.0 0.00 0.00 0.00 80 1014.1
20260508153541 55 192 2.0 5.0 0.00 0.00 0.00 80 1014.1
20260508153045 55 163 1.0 4.0 0.00 0.00 0.00 81 1014.1
20260508152541 55 219 1.0 4.0 0.00 0.00 0.00 82 1014.0
20260508152038 54 115 0.0 3.0 0.00 0.00 0.00 82 1013.9
20260508151537 54 79 1.0 3.0 0.00 0.00 0.00 83 1013.9
20260508151036 54 190 0.0 3.0 0.00 0.00 0.00 84 1013.9
20260508150635 54 339 0.0 0.0 0.00 0.00 0.00 84 1013.9
20260508150019 54 339 0.0 0.0 0.00 0.00 0.00 84 1013.9
20260508145519 54 339 0.0 0.0 0.00 0.00 0.00 84 1013.9
20260508145018 54 339 0.0 0.0 0.00 0.00 0.00 83 1013.9
20260508144518 54 339 0.0 1.0 0.00 0.00 0.00 83 1013.8
20260508144017 54 339 0.0 1.0 0.00 0.00 0.00 83 1013.7
20260508143517 54 338 0.0 1.0 0.00 0.00 0.00 83 1013.5
20260508143021 54 338 0.0 1.0 0.00 0.00 0.00 83 1013.5
20260508142514 54 338 0.0 1.0 0.00 0.00 0.00 83 1013.4
20260508142114 54 338 0.0 1.0 0.00 0.00 0.00 83 1013.4
20260508141514 54 338 0.0 1.0 0.00 0.00 0.00 83 1013.4
20260508141012 54 338 0.0 1.0 0.00 0.00 0.00 83 1013.5
20260508140512 54 338 0.0 1.0 0.00 0.00 0.00 83 1013.4
20260508140011 53 338 0.0 2.0 0.00 0.00 0.00 83 1013.4
20260508135511 53 338 0.0 2.0 0.00 0.00 0.00 83 1013.2
20260508135010 53 340 0.0 0.0 0.00 0.00 0.00 83 1013.2
20260508134509 53 340 0.0 1.0 0.00 0.00 0.00 83 1013.2
20260508134009 53 340 0.0 1.0 0.00 0.00 0.00 83 1013.2
20260508133516 53 340 0.0 0.0 0.00 0.00 0.00 83 1013.2
20260508133010 53 340 0.0 2.0 0.00 0.00 0.00 83 1013.1
20260508132506 53 340 0.0 2.0 0.00 0.00 0.00 83 1013.1
20260508132007 53 340 0.0 0.0 0.00 0.00 0.00 83 1013.1
20260508131505 53 340 0.0 0.0 0.00 0.00 0.00 83 1013.2
20260508131005 53 340 0.0 2.0 0.00 0.00 0.00 83 1013.1
20260508130504 53 340 0.0 2.0 0.00 0.00 0.00 83 1013.1
20260508130004 53 340 0.0 1.0 0.00 0.00 0.00 83 1013.0
20260508125504 53 340 0.0 0.0 0.00 0.00 0.00 83 1013.0
20260508125005 53 340 0.0 0.0 0.00 0.00 0.00 83 1013.0
20260508124506 53 340 0.0 0.0 0.00 0.00 0.00 83 1012.9
20260508124004 53 340 0.0 1.0 0.00 0.00 0.00 82 1012.8
20260508123504 53 340 0.0 1.0 0.00 0.00 0.00 83 1012.9
20260508123004 53 340 0.0 1.0 0.00 0.00 0.00 82 1012.9
20260508122506 53 340 0.0 1.0 0.00 0.00 0.00 82 1012.9
20260508122004 53 340 0.0 1.0 0.00 0.00 0.00 82 1012.9
20260508121504 53 340 0.0 1.0 0.00 0.00 0.00 82 1012.9
20260508121003 53 340 0.0 1.0 0.00 0.00 0.00 82 1012.9
20260508120503 53 340 0.0 2.0 0.00 0.00 0.00 82 1012.9
20260508120003 53 340 0.0 2.0 0.00 0.00 0.00 82 1012.9
20260508115502 53 340 0.0 1.0 0.00 0.00 0.00 82 1013.0
20260508115001 53 340 0.0 1.0 0.00 0.00 0.00 82 1012.9
20260508114501 53 340 0.0 1.0 0.00 0.00 0.00 82 1012.8
20260508114002 53 340 0.0 2.0 0.00 0.00 0.00 82 1012.9
20260508113501 53 340 0.0 2.0 0.00 0.00 0.00 82 1012.8
20260508113102 54 340 1.0 2.0 0.00 0.00 0.00 82 1012.7
20260508112600 54 339 0.0 2.0 0.00 0.00 0.00 82 1012.8
20260508112101 54 339 0.0 2.0 0.00 0.00 0.00 82 1012.7
20260508111611 54 339 0.0 2.0 0.00 0.00 0.00 82 1012.6
20260508111503 54 339 0.0 2.0 0.00 0.00 0.00 82 1012.6
20260508111100 54 339 0.0 2.0 0.00 0.00 0.00 82 1012.6
20260508110558 54 339 0.0 2.0 0.00 0.00 0.00 82 1012.8
20260508105558 53 340 0.0 1.0 0.00 0.00 0.00 82 1012.8
20260508105058 53 338 0.0 2.0 0.00 0.00 0.00 82 1012.8
20260508104558 53 338 0.0 3.0 0.00 0.00 0.00 82 1012.7
20260508104058 53 339 0.0 3.0 0.00 0.00 0.00 83 1012.7
20260508103558 53 317 1.0 3.0 0.00 0.00 0.00 83 1012.7
20260508103058 54 244 0.0 2.0 0.00 0.00 0.00 83 1012.8
20260508102557 54 244 0.0 2.0 0.00 0.00 0.00 83 1012.7
20260508102057 54 244 0.0 2.0 0.00 0.00 0.00 83 1012.7
20260508101557 54 244 0.0 2.0 0.00 0.00 0.00 83 1012.8
20260508101057 54 244 0.0 1.0 0.00 0.00 0.00 83 1012.8
20260508100556 54 244 0.0 2.0 0.00 0.00 0.00 83 1012.7
20260508100056 54 244 0.0 2.0 0.00 0.00 0.00 83 1012.7
20260508095556 54 244 0.0 0.0 0.00 0.00 0.00 83 1012.7
20260508095059 54 244 0.0 0.0 0.00 0.00 0.00 83 1012.6
20260508094606 54 244 0.0 1.0 0.00 0.00 0.00 83 1012.6
20260508094057 54 244 0.0 2.0 0.00 0.00 0.00 83 1012.5
20260508093555 54 244 0.0 2.0 0.00 0.00 0.00 83 1012.6
20260508093057 54 244 0.0 1.0 0.00 0.00 0.00 83 1012.6
20260508092555 54 244 0.0 1.0 0.00 0.00 0.00 83 1012.6
20260508092054 54 244 0.0 0.0 0.00 0.00 0.00 83 1012.5
20260508091656 54 244 0.0 0.0 0.00 0.00 0.00 83 1012.4
20260508091053 54 244 0.0 0.0 0.00 0.00 0.00 83 1012.5
20260508090552 54 244 0.0 0.0 0.00 0.00 0.00 83 1012.4
20260508090054 54 244 0.0 1.0 0.00 0.00 0.00 83 1012.5
20260508085552 54 244 0.0 1.0 0.00 0.00 0.00 83 1012.6
20260508085054 54 244 0.0 1.0 0.00 0.00 0.00 83 1012.6
20260508084551 54 244 0.0 1.0 0.00 0.00 0.00 82 1012.6
20260508084052 54 244 0.0 1.0 0.00 0.00 0.00 82 1012.7
20260508083551 54 244 0.0 1.0 0.00 0.00 0.00 83 1012.6
20260508083056 54 244 0.0 1.0 0.00 0.00 0.00 83 1012.6
20260508082551 54 244 0.0 1.0 0.00 0.00 0.00 83 1012.7
20260508082051 54 244 0.0 1.0 0.00 0.00 0.00 83 1012.7
20260508081605 54 244 0.0 1.0 0.00 0.00 0.00 82 1012.7
20260508081049 54 244 0.0 1.0 0.00 0.00 0.00 82 1012.7
20260508080552 54 244 0.0 2.0 0.00 0.00 0.00 82 1012.7
20260508080054 54 244 0.0 2.0 0.00 0.00 0.00 82 1012.8
20260508075547 54 244 0.0 2.0 0.00 0.00 0.00 82 1012.9
20260508075047 54 244 0.0 2.0 0.00 0.00 0.00 82 1012.9
20260508074547 54 244 1.0 2.0 0.00 0.00 0.00 82 1012.9
20260508074046 54 244 0.0 2.0 0.00 0.00 0.00 81 1013.0
20260508073546 54 244 0.0 2.0 0.00 0.00 0.00 81 1013.0
20260508073044 54 244 0.0 2.0 0.00 0.00 0.00 80 1013.1
20260508072543 54 222 0.0 1.0 0.00 0.00 0.00 80 1013.1
20260508072042 54 221 0.0 0.0 0.00 0.00 0.00 79 1013.1
20260508071541 54 221 0.0 0.0 0.00 0.00 0.00 79 1013.0
20260508071039 55 221 0.0 0.0 0.00 0.00 0.00 79 1013.1
20260508070538 55 218 0.0 0.0 0.00 0.00 0.00 78 1013.2
20260508070037 55 218 0.0 1.0 0.00 0.00 0.00 78 1013.2
20260508065536 55 218 0.0 1.0 0.00 0.00 0.00 78 1013.2
20260508065036 55 218 0.0 0.0 0.00 0.00 0.00 77 1013.2
20260508064536 55 218 0.0 0.0 0.00 0.00 0.00 77 1013.2
20260508064036 55 218 0.0 2.0 0.00 0.00 0.00 77 1013.3
20260508063536 55 218 0.0 2.0 0.00 0.00 0.00 77 1013.3
20260508063037 55 214 0.0 1.0 0.00 0.00 0.00 77 1013.3
20260508062536 56 214 0.0 1.0 0.00 0.00 0.00 77 1013.3
20260508062036 56 214 0.0 1.0 0.00 0.00 0.00 77 1013.2
20260508061537 56 214 0.0 1.0 0.00 0.00 0.00 78 1013.2
20260508061035 56 214 0.0 1.0 0.00 0.00 0.00 78 1013.2
20260508060535 56 214 0.0 1.0 0.00 0.00 0.00 78 1013.3
20260508060137 56 214 0.0 1.0 0.00 0.00 0.00 78 1013.2
20260508055534 56 214 0.0 1.0 0.00 0.00 0.00 78 1013.2
20260508055034 56 214 0.0 2.0 0.00 0.00 0.00 77 1013.1
20260508054541 56 214 0.0 3.0 0.00 0.00 0.00 77 1013.1
20260508054037 56 261 1.0 3.0 0.00 0.00 0.00 77 1013.0
20260508053534 56 250 0.0 2.0 0.00 0.00 0.00 76 1013.0
20260508053034 56 250 0.0 2.0 0.00 0.00 0.00 76 1013.0
20260508052534 56 250 0.0 2.0 0.00 0.00 0.00 76 1013.0
20260508052036 57 250 0.0 3.0 0.00 0.00 0.00 76 1013.0
20260508051533 57 249 1.0 3.0 0.00 0.00 0.00 76 1012.9
20260508051034 57 55 0.0 2.0 0.00 0.00 0.00 75 1012.8
20260508050634 57 55 0.0 2.0 0.00 0.00 0.00 75 1012.9
20260508050052 57 55 0.0 2.0 0.00 0.00 0.00 75 1013.0
20260508045553 57 55 0.0 2.0 0.00 0.00 0.00 76 1013.1
20260508045057 57 55 0.0 3.0 0.00 0.00 0.00 75 1013.1
20260508044652 57 57 0.0 3.0 0.00 0.00 0.00 75 1013.0
20260508044055 57 49 0.0 2.0 0.00 0.00 0.00 75 1013.1
20260508043555 57 46 1.0 3.0 0.00 0.00 0.00 75 1013.1
20260508043057 57 41 1.0 3.0 0.00 0.00 0.00 75 1013.1
20260508042551 57 34 0.0 2.0 0.00 0.00 0.00 75 1013.1
20260508042051 58 34 0.0 2.0 0.00 0.00 0.00 75 1013.1
20260508041554 57 34 1.0 2.0 0.00 0.00 0.00 75 1013.1
20260508041052 57 167 0.0 0.0 0.00 0.00 0.00 75 1013.2
20260508040652 57 167 0.0 0.0 0.00 0.00 0.00 75 1013.0
20260508040043 57 167 0.0 0.0 0.00 0.00 0.00 76 1013.0
20260508035544 58 167 0.0 0.0 0.00 0.00 0.00 76 1013.0
20260508035045 58 167 0.0 1.0 0.00 0.00 0.00 75 1013.0
20260508034552 58 167 0.0 1.0 0.00 0.00 0.00 75 1013.0
20260508034043 58 167 0.0 1.0 0.00 0.00 0.00 75 1013.0
20260508033543 58 167 0.0 1.0 0.00 0.00 0.00 74 1013.1
20260508033043 58 167 0.0 1.0 0.00 0.00 0.00 74 1013.0
20260508032544 58 167 0.0 1.0 0.00 0.00 0.00 73 1013.0
20260508032042 58 167 0.0 2.0 0.00 0.00 0.00 73 1012.9
20260508031542 58 167 0.0 2.0 0.00 0.00 0.00 72 1012.9
20260508031041 59 167 0.0 1.0 0.00 0.00 0.00 71 1013.0
20260508030641 59 167 0.0 0.0 0.00 0.00 0.00 70 1013.1
20260508030046 58 167 0.0 0.0 0.00 0.00 0.00 70 1013.0
20260508025543 59 167 0.0 0.0 0.00 0.00 0.00 70 1013.0
20260508025041 59 167 0.0 1.0 0.00 0.00 0.00 69 1013.1
20260508024545 59 167 0.0 1.0 0.00 0.00 0.00 68 1013.1
20260508024039 59 167 0.0 1.0 0.00 0.00 0.00 66 1013.2
20260508023541 59 167 0.0 1.0 0.00 0.00 0.00 67 1013.3
20260508023039 59 167 0.0 1.0 0.00 0.00 0.00 69 1013.3
20260508022539 59 167 0.0 2.0 0.00 0.00 0.00 67 1013.3
20260508022039 59 167 0.0 3.0 0.00 0.00 0.00 68 1013.2
20260508021641 59 167 1.0 3.0 0.00 0.00 0.00 66 1013.2
20260508021040 59 169 0.0 2.0 0.00 0.00 0.00 67 1013.3
20260508020638 59 169 0.0 3.0 0.00 0.00 0.00 68 1013.3
20260508020047 59 169 1.0 4.0 0.00 0.00 0.00 66 1013.3
20260508015543 60 277 1.0 4.0 0.00 0.00 0.00 66 1013.4
20260508015042 60 211 1.0 6.0 0.00 0.00 0.00 66 1013.3
20260508014540 60 211 1.0 6.0 0.00 0.00 0.00 65 1013.4
20260508014039 61 140 0.0 3.0 0.00 0.00 0.00 67 1013.5
20260508013538 61 198 0.0 3.0 0.00 0.00 0.00 67 1013.6
20260508013141 61 198 0.0 6.0 0.00 0.00 0.00 65 1013.6
20260508012037 62 101 1.0 5.0 0.00 0.00 0.00 64 1013.5
20260508011542 62 152 0.0 5.0 0.00 0.00 0.00 65 1013.6
20260508011036 62 214 2.0 6.0 0.00 0.00 0.00 63 1013.6
20260508010637 62 209 2.0 6.0 0.00 0.00 0.00 62 1013.7
20260508010036 61 161 1.0 5.0 0.00 0.00 0.00 63 1013.8
20260508005539 62 182 1.0 4.0 0.00 0.00 0.00 62 1013.8
20260508005034 62 129 1.0 4.0 0.00 0.00 0.00 64 1013.9
20260508004537 62 183 1.0 4.0 0.00 0.00 0.00 64 1013.9
20260508004034 61 132 0.0 3.0 0.00 0.00 0.00 67 1014.0
20260508003533 61 181 0.0 6.0 0.00 0.00 0.00 66 1014.1
20260508003032 61 139 1.0 6.0 0.00 0.00 0.00 63 1014.1
20260508002533 62 169 1.0 4.0 0.00 0.00 0.00 65 1014.2
20260508002033 61 339 1.0 6.0 0.00 0.00 0.00 68 1014.2
20260508001533 60 143 0.0 6.0 0.00 0.00 0.00 68 1014.2
20260508001033 60 169 2.0 5.0 0.00 0.00 0.00 67 1014.2
20260508000634 61 149 0.0 6.0 0.00 0.00 0.00 68 1014.1
20260508000027 61 55 0.0 6.0 0.00 0.00 0.00 69 1014.1
20260507235528 60 96 2.0 6.0 0.00 0.00 0.00 68 1014.0
20260507235027 61 93 1.0 6.0 0.00 0.00 0.00 68 1014.1
20260507234528 60 194 1.0 4.0 0.00 0.00 0.00 69 1014.1
20260507234026 60 75 0.0 4.0 0.00 0.00 0.00 69 1014.2
20260507233543 60 130 1.0 4.0 0.00 0.00 0.00 68 1014.1
20260507233043 61 132 1.0 4.0 0.00 0.00 0.00 67 1014.2